Mason City, IA

4:51 AM CDT on July 24, 2017 (GMT -0500)
Mason City Municipal

Weather History for KMCW - January, 2015

Change the Weather History Date:

Sunday, January 25, 2015

  Actual Average Record
Temperature  
Mean Temperature 29 °F 16 °F  
Max Temperature 34 °F 25 °F 62 °F (1944)
Min Temperature 24 °F 7 °F -25 °F (1936)
Degree Days  
Heating Degree Days 36 49  
Month to date heating degree days 1194 1225  
Since 1 July heating degree days 4319 4314  
Cooling Degree Days 0 0  
Month to date cooling degree days 0 0  
Year to date cooling degree days 0 0  
Moisture  
Dew Point 28 °F    
Average Humidity 91    
Maximum Humidity 100    
Minimum Humidity 81    
Precipitation  
Precipitation 0.02 in 0.03 in 0.25 in (1921)
Month to date precipitation 0.38 0.65  
Year to date precipitation 0.38 0.65  
Snow  
Snow 0.10 in 0.40 in 6.30 in (1996)
Month to date snowfall 7.7 8.6  
Since 1 July snowfall 21.4 22.6  
Snow Depth 0.00 in    
Sea Level Pressure  
Sea Level Pressure 29.87 in    
Wind  
Wind Speed 11 mph (NNE)    
Max Wind Speed 23 mph    
Max Gust Speed 27 mph    
Visibility 8 miles    
Events Snow    
T = Trace of Precipitation, MM = Missing Value Source: NWS Daily Summary

Daily Weather History Graph

Daily Weather History Graph

Search for Another Location

Airport or City:

Trip Planner

Search our weather history database for the weather conditions in past years. The results will help you decide how hot, cold, wet, or windy it might be!

Date:

Astronomy

Jan. 25, 2015 Rise Set
Actual Time 7:35 AM CST 5:16 PM CST
Civil Twilight 7:04 AM CST 5:46 PM CST
Nautical Twilight 6:30 AM CST 6:21 PM CST
Astronomical Twilight 5:56 AM CST 6:55 PM CST
Moon 10:31 AM CST (1/25) 11:52 PM CST (1/25)
Length of Visible Light 10h 41m
Length of Day
9h 40m
Waxing Crescent, 34% of the Moon is Illuminated
Jan 25
Waxing Crescent
Jan 26
First Quarter
Feb 3
Full
Feb 11
Last Quarter
Feb 18
New

Hourly Weather History & Observations

Time (CST) Temp. Windchill Dew Point Humidity Pressure Visibility Wind Dir Wind Speed Gust Speed Precip Events Conditions
12:27 AM 33.1 °F 26.9 °F 32.0 °F 96% 29.57 in 10.0 mi NNE 6.9 mph - N/A   Overcast
12:53 AM 33.1 °F 28.7 °F 32.0 °F 96% 29.60 in 10.0 mi NNW 4.6 mph - N/A   Overcast
1:20 AM 34.0 °F 27.2 °F 32.0 °F 92% 29.59 in 10.0 mi North 8.1 mph - N/A   Overcast
1:49 AM 33.8 °F 26.4 °F 32.0 °F 93% 29.60 in 10.0 mi North 9.2 mph - N/A   Overcast
1:53 AM 34.0 °F 26.6 °F 32.0 °F 92% 29.61 in 10.0 mi North 9.2 mph - N/A   Overcast
2:08 AM 34.0 °F 25.5 °F 32.0 °F 92% 29.61 in 10.0 mi North 11.5 mph - N/A   Overcast
2:26 AM 34.0 °F 25.0 °F 32.0 °F 92% 29.61 in 9.0 mi NNE 12.7 mph - N/A   Overcast
2:53 AM 34.0 °F 25.5 °F 33.1 °F 96% 29.64 in 9.0 mi NE 11.5 mph - 0.00 in   Overcast
3:53 AM 33.1 °F 23.4 °F 32.0 °F 96% 29.67 in 2.5 mi NNE 13.8 mph - 0.00 in Snow Light Snow
4:18 AM 33.1 °F 23.0 °F 32.0 °F 96% 29.66 in 2.5 mi NNE 15.0 mph - 0.01 in Snow Light Snow
4:38 AM 33.1 °F 22.6 °F 30.9 °F 92% 29.67 in 2.0 mi NNE 16.1 mph - 0.01 in Snow Light Snow
4:53 AM 33.1 °F 21.9 °F 30.9 °F 92% 29.70 in 1.8 mi NNE 18.4 mph - 0.02 in Snow Light Snow
5:53 AM 33.1 °F 22.2 °F 30.9 °F 92% 29.75 in 1.8 mi NNE 17.3 mph 26.5 mph 0.00 in Snow Light Snow
6:25 AM 33.1 °F 22.2 °F 30.9 °F 92% 29.76 in 2.5 mi NE 17.3 mph - 0.00 in Snow Light Snow
6:32 AM 33.1 °F 22.2 °F 30.9 °F 92% 29.76 in 3.0 mi NNE 17.3 mph - 0.00 in Snow Light Snow
6:53 AM 33.1 °F 23.4 °F 30.9 °F 92% 29.80 in 4.0 mi NNE 13.8 mph - 0.00 in   Overcast
7:53 AM 32.0 °F 20.1 °F 30.0 °F 92% 29.84 in 8.0 mi NNE 19.6 mph - 0.00 in   Overcast
8:53 AM 30.0 °F 19.1 °F 28.0 °F 92% 29.89 in 10.0 mi NNE 15.0 mph - N/A   Overcast
9:53 AM 30.0 °F 18.7 °F 27.0 °F 88% 29.93 in 10.0 mi NNE 16.1 mph - N/A   Overcast
10:53 AM 28.9 °F 17.7 °F 27.0 °F 92% 29.98 in 10.0 mi North 15.0 mph - N/A   Overcast
11:53 AM 30.0 °F 19.5 °F 27.0 °F 88% 29.99 in 10.0 mi NNE 13.8 mph - N/A   Overcast
12:20 PM 30.0 °F 20.0 °F 27.0 °F 88% 29.97 in 10.0 mi NNE 12.7 mph - N/A   Overcast
12:53 PM 30.0 °F 20.0 °F 27.0 °F 88% 29.99 in 10.0 mi NNE 12.7 mph - N/A   Overcast
1:38 PM 28.9 °F 19.2 °F 27.0 °F 92% 29.97 in 10.0 mi North 11.5 mph - N/A   Overcast
1:53 PM 28.9 °F 19.8 °F 26.1 °F 89% 30.01 in 10.0 mi North 10.4 mph - N/A   Overcast
2:15 PM 30.0 °F 21.7 °F 26.1 °F 85% 29.98 in 10.0 mi North 9.2 mph - N/A   Overcast
2:25 PM 30.0 °F 22.4 °F 26.1 °F 85% 29.98 in 10.0 mi NNE 8.1 mph - N/A   Overcast
2:53 PM 28.9 °F 21.1 °F 26.1 °F 89% 30.01 in 10.0 mi North 8.1 mph - N/A   Overcast
3:31 PM 28.9 °F 21.1 °F 26.1 °F 89% 30.01 in 10.0 mi North 8.1 mph - N/A   Overcast
3:53 PM 28.9 °F 21.1 °F 25.0 °F 85% 30.05 in 10.0 mi North 8.1 mph - N/A   Overcast
4:53 PM 28.0 °F 18.1 °F 24.1 °F 85% 30.06 in 10.0 mi NNW 11.5 mph - N/A   Overcast
5:35 PM 27.0 °F 15.6 °F 24.1 °F 89% 30.04 in 10.0 mi NNW 13.8 mph - N/A   Overcast
5:53 PM 27.0 °F 18.0 °F 24.1 °F 89% 30.08 in 10.0 mi NW 9.2 mph - N/A   Overcast
6:35 PM 27.0 °F 18.7 °F 21.9 °F 81% 30.05 in 10.0 mi North 8.1 mph - N/A   Overcast
6:53 PM 27.0 °F 18.0 °F 21.9 °F 81% 30.08 in 10.0 mi North 9.2 mph - N/A   Overcast
7:53 PM 26.1 °F 20.5 °F 21.0 °F 81% 30.09 in 10.0 mi North 4.6 mph - N/A   Overcast
8:53 PM 26.1 °F 21.9 °F 21.0 °F 81% 30.10 in 10.0 mi NE 3.5 mph - N/A   Overcast
9:53 PM 25.0 °F - 21.0 °F 85% 30.07 in 10.0 mi Calm Calm - N/A   Overcast
10:53 PM 25.0 °F 20.7 °F 21.0 °F 85% 30.06 in 10.0 mi South 3.5 mph - N/A   Overcast
11:53 PM 26.1 °F - 21.9 °F 84% 30.05 in 10.0 mi Calm Calm - N/A   Overcast